sat.trackr.live / text

‹ back to catalog

STARLINK-31090

NORAD 58640 · 2023-203Y

PAYLOAD ACTIVE UNKNOWN

§ Identity

Operator
Country
US
Launch date
2023-12-23
Launch site
AFETR
Launch vehicle
Mass (kg)
RCS (m²)

Purposes: comms

External: N2YO · Heavens-Above · Gunter

§ Orbital elements

Epoch: 2026-09-19T17:06:10.178784Z

Period
94.27 min
Inclination
43.0041°
Eccentricity
0.0000855
Mean motion
15.27579087 rev/d
Perigee alt
482.5 km
Apogee alt
483.6 km
Semi-major
6,861.2 km
B*
1.9265e-5
RAAN
43.6612°
Arg perigee
263.0979°
Mean anomaly
96.9776°
Rev number
15,333

§ Raw data

STARLINK-310901 58640U 23203Y   26262.71261781  .00000268  00000+0  19265-4 0  99962 58640  43.0041  43.6612 0000855 263.0979  96.9776 15.27579087153333

JSON: /api/v1/satellites/58640 · /tle

For live sub-satellite position, see the globe view (requires WebGL).

§ Visibility from observer

Set your observer location to see the next 7 days of passes ≥ 10°. The values pass through the URL so the page stays shareable.

No JS? Fill the form by hand. The geolocation button needs JavaScript.